DMSP 5D-2 F13 DEB, 42267

Orbit data source: Space-Track

DMSP 5D-2 F13 DEB, 42267 is space debris in SSO originally from a launch on Fri, 24 Mar 1995 UTC launched from the Air Force Western Test Range (AFWTR). Debris objects in space refer to the collection of defunct objects orbiting the Earth. Examples of debris include non-operational satellites, rocket bodies, and fragments generated from explosions, collisions, or faulty payload assembly.

Loading next visibility...
Identifier
42267, 1995-015GH
Orbit
SSO
Country
Flag of USUS
Related business
Manufacturer
Unknown
Mission
Spacecraft
Bus & Motor
Unknown
Mass
Unknown
Launch date (UTC)
1995-03-24 (31 years ago)
Launch vehicle
Unknown
Launch site
Air Force Western Test Range (AFWTR)
Object type
Payload
Rocket body
Debris
Shape & HBR
Unknown shape, 0.1 m
Radar Cross Section
Medium (>0.1 m² and <1 m²)

Expand to show TLE details & history
Last TLE update: 4 days ago

TLE from 4 days ago
0 DMSP 5D-2 F13 DEB
1 42267U 95015GH  26168.91556882  .00003582  00000-0  16542-2 0  9996
2 42267  98.7367  55.4567 0074632 204.4363 155.3268 14.20100732570988
Epoch: 2026-06-17T21:58Z
TLE epoch observation values (Epoch: 2026-06-17T21:58:25.146Z)
Latitude
-0.00008°
Longitude
179.68554°
Altitude
876.855 km
Speed
7.389 km/s
True Right ascension
03h 41m 49s
True Declination
0° 00' 00"
Sunlit
Object was in daylight at epoch
Visualization orbit readout
Latitude
Unknown
Longitude
Unknown
Altitude
Unknown
Speed
Unknown
Apparent Right ascension
Unknown
Apparent Declination
Unknown
Sunlit
N/A
Visualization observer readout
Local Sidereal Time
08:35:40
Azimuth
Unknown
Elevation
Unknown
Doppler factor
Unknown
Orbital elements
Apogee altitude
875.909 km
Perigee altitude
768.434 km
Semi-major axis
7,200.309 km
Eccentricity
0.00746
Inclination
98.7367°
RAAN
55.4567°
Arg. of periapsis
204.4363°
True anomaly
155.6808°
Mean anomaly
155.3268°
Eccentric anomaly
155.5041°
Mean motion
3.55236 °/min
Orbital period
101.34 mins
BSTAR
0.0016542
Loading maneuver chart data...
Computing Atmospheric mass density...

Documentation

Showing up to 5 results
|